Theta_e
344 342 342 348 349 349 347 347 347 346 345 345 343 343 343 342 343 344 344 343 343 343 342 342 343 344 344 342 342 342 342 346 346 347 347 346 347 347 346 346 346 346 346 344 345 346 346 345 347 347 346 345 346 347 347 347 347 346 344 343 343 342 342 342 342 341 341 341 341 341 341 341 341 340 341 340 340 340 343 344 339 334 333 336 339
343 343 343 346 349 348 347 348 347 346 345 344 344 343 343 343 344 344 344 344 344 343 342 343 343 344 345 343 344 342 343 346 346 347 346 347 347 347 346 346 346 345 346 346 346 347 346 345 347 347 347 347 347 346 347 345 344 344 343 343 342 341 340 340 340 340 339 339 339 340 339 340 340 340 340 341 341 339 338 339 338 332 331 337 338
345 344 344 346 349 348 347 347 347 346 345 345 344 344 344 344 344 344 344 344 344 343 343 344 344 345 345 345 344 344 344 346 347 347 347 346 346 347 347 347 346 346 346 346 346 346 347 347 345 346 346 346 346 346 346 345 342 342 342 343 342 342 341 340 340 338 338 338 337 338 338 339 338 339 339 341 341 341 338 336 336 337 331 335 335
344 344 345 348 349 348 348 347 347 346 345 345 345 344 344 344 344 343 343 344 344 344 344 345 345 345 346 346 345 346 345 346 347 347 346 346 346 346 346 347 347 347 346 346 346 346 345 346 346 345 346 346 346 345 345 344 344 343 344 344 343 341 340 339 340 340 340 339 340 338 335 332 335 338 338 340 340 340 340 337 336 337 336 336 336
345 345 346 347 346 347 348 347 347 347 346 345 344 345 344 344 344 343 343 343 344 345 345 345 346 345 346 347 346 346 346 345 346 346 346 345 346 346 347 347 347 346 346 346 346 346 345 346 345 344 343 343 344 344 344 343 344 344 344 343 342 342 342 341 340 339 339 341 342 336 328 328 330 336 336 338 338 338 339 338 337 338 337 337 338
345 345 346 346 345 346 348 348 347 347 346 345 344 345 345 345 346 345 344 344 344 345 345 346 346 346 346 347 346 346 345 346 346 346 346 345 345 345 346 346 346 345 346 345 346 346 345 345 344 343 342 341 342 342 342 343 343 343 343 342 342 341 340 341 341 340 340 339 343 333 325 326 328 330 335 336 336 338 336 336 337 339 338 337 336
345 346 345 345 345 346 347 348 347 347 346 345 344 345 345 346 346 345 345 345 344 345 345 346 346 347 346 347 346 346 345 346 346 346 346 345 345 345 345 345 345 344 344 345 345 344 343 342 342 341 340 339 340 341 342 342 342 342 342 342 340 339 338 337 337 338 341 338 335 330 328 330 332 335 338 338 337 334 334 335 337 339 340 336 335
346 345 345 345 345 346 347 347 348 347 346 346 345 345 346 347 345 346 346 346 346 346 347 347 346 346 346 346 346 346 346 346 346 345 345 344 345 344 344 345 345 345 344 344 344 343 342 341 340 339 339 339 340 341 341 342 341 342 341 341 340 338 337 338 340 340 343 338 331 330 330 333 333 335 338 337 336 336 333 334 339 339 339 338 336
345 345 345 344 345 346 345 346 348 347 347 346 345 345 346 347 347 346 346 346 346 345 346 346 346 346 346 347 346 347 346 346 344 344 343 342 341 341 343 344 344 344 343 343 343 342 341 340 339 338 338 339 339 340 340 341 340 341 342 341 340 339 339 338 339 341 335 333 335 335 335 333 333 333 337 337 336 334 333 335 337 338 336 336 336
345 345 344 344 345 345 345 346 347 347 347 346 345 345 346 347 347 346 345 345 345 345 345 346 346 346 346 347 347 346 346 345 344 343 342 341 340 339 340 343 343 343 342 341 341 340 339 339 338 338 339 338 339 340 340 340 339 340 341 341 339 339 339 339 341 338 335 332 334 333 337 339 332 331 330 331 331 334 334 335 337 337 336 334 335
344 344 344 344 346 344 345 346 346 347 347 347 346 345 346 347 346 346 345 345 345 346 346 346 345 347 346 346 345 346 345 345 344 343 342 341 339 338 338 339 341 342 341 340 339 339 339 339 339 339 339 338 338 340 340 340 340 340 341 341 340 339 340 337 339 332 332 329 327 328 336 339 330 329 333 333 332 334 335 336 335 335 334 333 332
342 344 344 345 346 344 345 345 346 346 346 346 345 345 346 347 347 346 346 345 345 346 345 345 346 346 344 346 345 345 346 344 344 344 342 340 339 338 337 336 338 342 342 340 339 339 339 338 340 340 339 338 338 340 340 340 340 341 341 340 339 338 338 338 333 330 330 327 327 330 333 333 332 333 335 335 335 337 337 337 337 336 335 333 332
340 342 344 345 344 343 344 344 345 346 347 347 345 345 346 348 347 346 346 345 346 345 345 345 345 345 344 345 344 345 345 344 345 342 341 340 338 337 336 336 336 342 341 340 339 339 338 340 340 339 338 337 337 339 339 339 339 340 340 339 338 338 336 337 332 329 329 330 329 329 331 334 333 337 337 337 337 338 338 338 337 336 335 334 334
339 342 345 344 344 344 343 343 344 344 346 346 346 345 346 346 346 346 346 345 346 345 345 344 344 345 344 344 344 344 344 344 344 342 340 340 339 338 336 335 335 339 342 340 339 338 338 340 339 338 337 337 337 338 338 337 337 339 338 337 336 335 333 335 333 328 329 328 327 329 334 335 335 340 338 337 337 336 337 337 337 336 335 334 335
340 344 345 344 344 344 344 342 343 343 345 345 345 345 346 346 346 346 346 345 344 345 344 345 344 344 344 343 343 344 344 344 344 342 341 341 339 338 336 336 335 338 341 340 339 339 338 338 339 338 337 336 336 337 337 337 336 336 334 334 333 333 330 328 329 328 329 329 326 329 331 333 339 339 339 339 338 337 335 334 336 337 337 335 334
345 345 344 343 344 344 344 345 341 341 341 342 342 343 345 346 346 346 345 345 345 344 344 344 343 343 342 344 345 344 343 343 341 338 337 338 339 338 338 337 336 335 338 340 340 339 339 339 338 337 336 337 336 335 335 335 334 332 331 330 331 330 329 327 324 327 323 323 327 327 327 333 338 338 338 337 336 336 335 335 335 338 337 336 335
345 344 344 343 343 344 344 344 342 339 339 339 339 340 343 344 344 345 345 345 344 343 344 344 343 343 345 345 344 344 343 342 340 337 336 337 338 337 339 338 338 335 335 337 340 340 339 339 338 337 336 336 336 334 333 332 331 330 329 330 329 329 328 326 323 324 326 326 327 328 328 330 334 335 335 335 336 334 335 334 333 334 334 335 334
344 344 343 343 343 343 344 343 342 342 341 338 337 337 339 342 341 342 343 343 343 343 342 342 342 342 343 342 342 343 342 339 338 336 335 336 334 334 336 337 338 337 336 335 336 340 340 339 337 336 335 335 335 335 333 331 331 330 329 329 328 327 326 325 322 324 326 328 323 327 328 335 334 333 333 333 334 335 333 334 333 333 334 332 333
340 343 343 343 343 343 343 343 342 343 342 340 338 337 336 338 338 339 340 341 340 339 338 338 338 338 338 339 339 340 339 337 336 335 334 334 334 333 333 336 336 336 334 335 335 336 339 338 336 336 336 335 334 335 335 333 331 330 329 328 328 326 325 322 320 323 324 322 321 324 325 333 332 332 331 332 332 334 335 334 335 334 334 334 333
337 339 343 342 343 343 342 343 343 343 342 340 339 338 335 335 336 336 337 338 337 336 335 334 334 334 334 335 335 336 336 335 336 332 332 332 334 329 331 334 338 336 335 335 336 335 335 337 336 337 336 334 333 333 335 334 332 330 330 328 324 320 320 320 319 323 322 322 324 324 332 331 331 330 330 331 332 332 332 333 334 335 334 334 333
338 337 339 342 342 342 342 342 342 342 342 341 339 339 337 334 334 334 334 334 334 333 332 330 329 329 330 330 332 332 332 332 333 330 331 329 325 326 329 332 336 338 337 337 338 337 335 334 335 336 336 334 334 335 335 334 332 332 329 326 320 319 322 322 323 322 321 321 323 322 333 331 330 329 330 331 331 331 331 332 332 333 335 335 335
334 335 337 341 341 341 341 342 341 341 341 341 340 340 338 335 336 334 334 332 331 331 331 331 334 331 328 329 330 331 330 330 330 334 328 328 324 325 327 330 333 335 337 338 338 337 335 334 333 333 332 334 333 329 330 332 331 331 327 321 319 321 322 322 322 320 320 322 322 327 332 331 329 329 329 329 330 331 331 332 333 333 333 335 335
334 334 336 340 341 340 342 341 341 341 341 340 341 339 338 337 336 335 335 332 334 332 332 333 331 332 331 330 329 328 328 329 329 331 330 325 326 325 327 329 331 333 334 335 335 336 336 334 333 334 334 333 326 323 325 326 326 329 324 319 322 322 322 323 320 319 320 320 321 331 331 330 331 330 330 329 330 331 331 331 332 333 333 334 335
334 335 334 338 340 340 341 342 341 341 341 340 340 339 337 337 336 335 334 333 333 332 331 331 331 332 333 330 327 326 327 327 333 335 337 327 325 324 325 326 328 329 331 332 333 333 334 334 333 333 332 328 324 323 323 326 327 325 323 322 322 323 323 322 320 319 319 323 323 332 331 330 330 330 331 331 331 332 332 332 332 333 333 333 334
335 336 335 335 338 340 342 342 342 341 341 339 339 338 337 336 335 335 334 332 332 331 330 330 330 330 330 329 328 327 328 327 327 330 328 327 324 324 324 325 326 326 327 328 328 329 329 326 326 327 324 326 323 324 324 325 326 325 324 325 325 324 323 323 321 320 322 323 323 329 331 331 331 331 331 332 333 333 333 333 333 333 333 333 333
335 334 334 334 337 339 341 341 342 341 341 340 339 338 336 335 335 335 334 333 332 329 329 330 329 331 329 328 328 328 327 326 327 326 325 326 325 324 324 324 323 325 325 327 327 328 326 325 325 326 324 324 325 325 324 323 324 325 325 325 323 322 323 322 322 322 322 322 322 327 328 331 331 332 332 333 334 334 335 335 335 335 335 335 334
333 333 334 334 335 338 340 341 341 341 341 340 340 338 337 336 335 335 334 332 332 329 328 329 328 329 329 327 327 326 325 324 326 325 324 324 325 325 324 324 324 324 324 324 325 328 326 325 323 325 324 323 322 324 324 322 321 321 320 321 321 322 321 322 321 321 322 321 323 325 327 330 331 331 332 332 333 334 335 335 336 335 335 336 335
333 333 334 334 334 336 338 339 340 340 340 340 339 339 338 337 335 334 334 332 332 330 329 330 329 328 329 328 327 327 325 323 324 326 325 324 323 324 324 323 323 323 324 324 324 325 327 325 323 322 323 323 322 322 321 321 321 320 320 320 320 319 321 320 320 321 321 322 322 322 324 330 330 331 331 332 332 333 334 335 336 336 335 335 335
331 332 333 334 335 335 337 338 338 341 340 340 339 338 339 338 336 335 334 331 333 332 331 331 328 329 329 328 327 326 325 324 324 323 324 323 324 324 323 322 323 323 323 322 323 322 323 325 323 322 322 322 321 321 320 320 320 320 321 320 320 320 319 319 320 320 321 321 322 322 322 326 329 331 332 332 333 333 334 335 336 336 336 336 335
332 333 333 333 335 336 335 337 338 339 340 340 338 338 338 337 336 336 335 332 333 333 332 330 327 328 328 328 327 326 326 324 324 324 322 323 323 324 324 323 322 322 322 322 321 322 322 322 322 322 322 321 320 321 320 320 320 320 321 321 321 322 321 321 321 321 322 322 322 322 321 322 326 329 331 332 332 333 334 335 335 336 336 336 336
332 333 334 334 334 335 336 336 338 337 338 337 337 338 337 336 336 336 336 334 333 332 332 331 327 326 326 328 327 326 326 326 325 324 323 323 324 324 323 324 322 322 323 323 324 323 322 322 322 321 321 322 321 320 321 321 321 321 321 321 322 322 321 322 321 322 322 322 323 323 323 321 323 326 330 331 332 333 334 334 335 336 336 336 336
330 332 333 335 335 334 336 337 337 338 337 337 336 336 337 336 336 336 335 335 334 332 331 330 326 325 327 328 327 327 325 326 326 325 324 323 323 322 323 323 323 323 324 323 323 323 322 322 322 322 321 321 321 321 321 320 320 321 321 321 322 322 320 321 321 322 322 322 321 323 323 322 321 323 325 330 332 333 334 335 336 336 337 337 337
330 332 333 334 334 334 335 336 337 338 337 337 337 337 337 337 337 336 336 336 334 333 331 330 327 326 327 329 327 328 326 326 325 325 324 323 322 322 323 322 323 323 324 323 322 322 322 322 322 322 323 322 321 321 322 321 320 320 321 321 321 321 322 322 321 322 322 322 322 322 323 323 322 321 322 324 326 330 333 335 335 336 337 337 337
330 331 333 333 335 338 337 338 336 338 337 337 337 337 336 336 337 336 335 335 334 332 331 331 327 326 327 328 328 327 327 326 326 326 325 324 324 323 323 322 323 323 324 324 323 323 322 322 321 321 321 321 320 320 320 320 319 319 320 319 319 320 320 321 321 322 322 322 323 323 323 323 323 323 321 321 322 325 330 333 334 335 337 338 338
330 332 333 333 334 336 338 337 336 336 336 337 337 336 336 336 336 336 336 335 335 333 332 332 329 327 326 327 328 327 327 327 327 326 326 325 324 324 324 322 324 323 323 323 323 323 322 321 321 320 320 319 319 320 320 319 318 319 319 319 319 319 320 320 320 321 322 323 323 323 323 323 323 323 324 323 322 322 325 329 333 335 336 336 336
329 331 332 333 334 334 335 335 335 335 336 336 337 337 334 335 335 335 336 336 334 334 333 332 331 328 327 326 328 327 327 327 327 327 325 325 323 323 323 324 324 324 324 322 322 320 320 321 320 320 318 318 318 318 319 319 318 319 318 318 318 319 319 319 320 320 322 322 322 323 323 323 324 324 322 325 324 323 324 326 329 333 334 334 335
330 331 332 332 332 334 334 334 334 335 336 336 335 335 337 336 336 335 336 336 335 334 333 333 331 329 327 325 327 327 327 327 327 327 325 325 325 325 323 325 325 323 322 322 322 322 320 321 320 320 319 317 318 318 318 319 319 319 318 317 318 319 319 319 320 321 323 323 323 323 323 324 323 319 324 325 325 324 322 322 325 329 331 331 331
330 331 332 333 332 332 334 334 335 336 335 336 335 335 335 334 335 335 334 335 335 334 333 332 331 329 328 325 326 328 328 328 328 327 326 327 326 325 325 325 325 324 323 323 322 322 322 322 320 320 320 319 317 317 318 319 319 319 319 319 319 320 321 321 321 318 321 322 322 324 324 324 324 325 325 326 326 325 324 321 322 324 326 325 326
330 331 331 333 333 332 333 332 333 334 336 336 334 333 333 335 334 332 332 334 334 333 333 332 333 331 328 327 326 327 327 328 328 328 327 326 325 326 326 325 326 324 324 323 322 322 322 322 320 320 320 320 318 318 318 319 319 319 319 319 320 320 321 320 321 319 320 322 323 323 325 325 325 325 326 326 326 325 324 323 320 320 321 320 323
331 332 332 332 332 332 332 332 332 334 336 335 334 334 332 330 331 332 330 330 332 332 333 333 334 332 330 327 326 326 327 327 328 328 328 327 326 325 326 326 325 324 323 322 321 322 323 322 322 322 321 319 318 318 317 317 316 315 315 319 321 322 322 322 322 322 322 323 323 323 324 325 325 325 326 326 325 325 324 323 319 321 321 320 319
330 332 331 332 333 332 331 330 331 332 331 331 331 331 330 330 331 331 330 332 331 332 332 332 332 332 331 328 326 326 326 327 327 328 328 327 329 328 327 327 328 327 326 324 323 324 325 325 323 323 322 321 321 321 319 316 314 313 316 317 319 321 321 320 322 322 322 323 324 324 324 323 324 325 325 325 324 323 323 323 323 323 322 323 320
329 330 330 329 331 333 331 331 331 331 331 331 331 331 331 332 331 330 331 331 331 330 330 331 332 332 331 329 326 327 327 327 326 328 328 329 328 327 326 326 327 327 327 327 326 323 325 325 325 323 323 321 321 322 322 319 313 311 310 313 316 319 320 321 321 322 322 323 324 324 324 324 324 323 324 324 323 323 323 323 323 323 323 323 321
327 328 331 331 331 332 333 332 331 331 330 330 330 330 330 331 332 332 331 331 332 332 331 331 332 331 331 330 328 327 327 327 327 327 328 328 328 327 327 327 327 327 326 326 326 326 325 325 325 323 321 322 322 324 322 321 316 316 315 313 310 309 311 316 320 321 323 323 323 324 324 324 323 323 323 322 322 322 323 323 323 323 322 322 321
319 322 326 328 329 328 331 330 331 331 331 331 329 330 330 331 332 332 331 330 329 328 331 331 330 329 329 329 327 327 327 327 327 327 327 328 328 327 327 326 326 327 326 325 326 326 326 325 325 324 324 320 320 321 323 322 321 318 312 312 309 307 308 311 315 320 323 323 323 323 323 323 322 322 322 321 321 321 322 322 322 322 322 321 321
307 309 313 316 322 324 326 328 329 331 331 330 330 330 329 330 330 329 328 327 327 328 328 327 328 327 326 326 326 327 328 327 327 327 326 327 327 327 327 326 326 326 326 326 326 326 326 326 326 324 324 322 320 321 323 324 322 323 317 309 308 307 307 309 312 314 319 320 321 322 321 322 321 321 321 320 320 321 322 322 322 322 321 321 320
303 307 308 310 311 312 313 319 328 329 330 331 330 329 329 329 327 326 324 324 324 324 324 325 327 328 327 328 328 329 329 329 329 329 328 326 327 327 326 326 325 326 326 327 327 327 327 326 326 325 324 325 323 321 321 323 324 323 323 321 315 310 309 311 312 306 313 314 317 319 320 321 321 320 320 320 320 321 321 322 322 322 321 321 321
300 304 304 305 306 307 308 310 311 313 314 317 329 329 329 328 327 326 326 325 324 325 327 327 327 329 330 329 329 329 330 330 329 330 329 328 328 327 327 327 326 326 326 327 327 327 327 327 327 326 326 325 324 322 322 321 322 323 323 323 321 319 316 314 311 309 307 310 313 315 317 318 319 319 320 320 320 321 321 321 321 321 321 322 321
297 299 301 301 301 303 304 305 307 308 309 312 314 318 326 326 324 324 323 324 325 325 328 329 330 329 329 329 330 330 330 330 330 330 330 330 328 328 328 328 327 328 327 327 327 328 328 328 327 327 327 326 325 323 322 323 320 320 322 322 321 321 320 318 318 314 309 307 311 314 314 317 318 319 319 319 319 320 321 320 320 321 320 321 321
296 296 296 298 299 300 301 300 302 303 305 307 309 311 312 316 325 326 325 325 326 327 327 326 326 326 326 327 328 329 331 332 332 331 331 331 328 328 328 328 327 328 326 327 328 328 328 327 327 327 326 326 326 325 324 323 323 321 320 320 322 321 320 319 318 318 314 310 310 311 312 313 316 318 319 319 320 321 321 321 320 320 321 321 322
295 296 296 296 297 297 297 297 298 299 301 303 305 306 308 310 311 312 317 323 325 326 325 325 325 325 325 326 327 326 326 328 330 331 331 332 331 329 329 329 328 328 326 327 328 328 328 327 327 327 327 326 327 326 325 325 325 324 322 320 318 319 319 318 316 316 315 314 312 309 312 313 313 315 318 319 320 321 321 321 321 320 321 321 321
294 294 294 294 295 296 296 295 296 297 298 298 301 302 305 306 305 307 309 311 313 319 322 324 324 324 325 326 327 327 328 328 329 328 330 331 331 330 330 330 330 328 327 328 328 328 328 328 328 328 327 326 326 326 325 325 326 325 324 321 320 319 318 316 315 315 315 313 312 313 314 314 314 313 317 320 320 321 321 321 321 320 320 321 321
Wind_Speed
11 15 15 18 18 20 20 20 19 18 18 16 15 14 14 13 12 12 12 13 14 13 12 11 12 12 12 11 10 11 10 13 11 11 11 11 11 11 11 12 12 10 13 13 15 15 15 15 14 15 15 14 15 15 15 16 16 16 16 16 16 16 15 15 16 16 14 15 14 14 13 13 13 14 13 13 14 13 12 9 11 6 6 9 16
15 14 13 14 19 19 20 20 20 19 18 17 16 15 14 13 13 12 13 13 13 13 12 12 11 11 12 11 12 11 10 12 10 11 11 11 11 12 12 12 12 11 10 13 13 14 14 14 16 13 14 14 14 15 16 16 16 15 16 16 15 15 15 14 14 15 15 14 15 14 14 13 12 12 13 14 14 15 14 14 12 5 4 12 13
14 14 12 14 19 19 19 20 20 20 19 18 17 16 14 13 13 13 13 12 12 12 12 11 11 12 12 12 12 11 9 11 10 11 12 12 12 13 14 13 13 13 12 12 11 10 15 14 13 14 13 13 13 15 15 15 15 15 15 15 14 13 13 13 13 13 14 15 16 15 14 14 12 11 12 13 15 14 12 13 12 8 7 12 9
15 12 12 15 19 19 19 20 20 20 19 18 18 16 15 14 13 13 13 12 11 11 11 11 11 12 13 13 12 11 10 11 10 12 12 12 13 13 14 14 14 13 13 13 13 13 12 14 15 14 14 14 14 15 14 15 15 14 14 13 12 12 11 11 10 10 11 14 15 11 5 5 7 11 12 12 13 13 10 13 11 10 10 12 12
15 12 12 13 13 16 18 20 20 20 19 19 18 17 16 15 14 13 13 13 11 12 12 12 12 13 14 13 12 11 10 11 11 13 13 13 13 13 13 14 14 14 14 14 14 14 15 14 16 14 12 13 14 13 13 14 13 13 13 12 11 10 9 9 9 9 9 8 5 7 6 5 4 10 10 11 11 11 10 10 12 12 11 11 11
14 12 12 12 12 13 18 19 20 20 19 19 19 18 17 16 15 15 14 14 13 12 12 13 14 14 13 12 12 11 12 12 13 13 13 13 13 13 14 14 15 14 15 15 15 15 14 15 15 13 12 11 12 12 13 12 13 13 12 11 9 7 6 5 4 4 1 3 3 3 7 5 4 5 11 10 10 8 10 8 10 11 9 9 10
16 12 13 12 10 12 18 18 19 20 21 19 19 18 17 16 15 15 15 15 15 14 14 14 13 13 13 12 12 12 12 13 13 13 14 14 14 14 14 13 14 14 14 15 15 14 13 12 12 12 11 11 11 12 13 13 13 12 11 10 8 6 3 2 0 2 2 2 4 5 7 7 4 3 9 8 8 8 8 8 9 10 12 10 10
12 12 12 11 10 13 17 17 18 20 20 20 19 18 17 17 16 14 15 15 15 14 14 13 13 12 12 13 13 14 13 14 14 15 15 14 14 12 13 14 14 13 13 14 15 14 14 13 11 10 10 10 10 11 12 13 13 12 11 9 8 4 2 1 3 6 7 4 4 5 7 7 5 3 9 9 8 8 7 8 9 11 13 13 12
13 12 12 11 11 17 16 16 17 19 20 20 19 18 18 17 16 15 13 13 13 13 12 13 13 12 12 13 14 13 14 14 12 14 13 14 13 13 11 11 13 13 13 13 13 12 12 12 11 10 9 9 9 10 11 11 12 11 10 8 6 4 1 1 3 5 4 0 6 5 5 7 5 4 7 9 7 8 8 8 8 10 11 11 11
13 12 11 10 11 16 16 16 16 19 20 19 19 18 18 17 15 14 14 13 12 11 9 9 11 13 13 13 15 15 14 13 12 15 14 13 12 12 10 12 12 12 12 11 11 10 10 9 9 9 9 8 9 10 10 10 10 11 10 8 5 3 2 3 8 6 4 6 5 3 4 7 5 5 6 8 8 8 9 9 8 7 6 9 8
14 12 12 11 15 16 16 16 16 18 20 19 19 18 17 15 15 14 14 14 13 11 11 9 11 12 13 14 14 15 15 14 12 16 14 13 12 10 10 9 11 11 12 11 9 9 9 9 10 9 9 8 9 10 11 11 11 10 9 7 5 2 4 5 6 5 2 5 4 3 4 11 5 3 8 9 9 9 8 8 7 6 7 7 7
14 13 11 11 17 17 15 16 15 16 18 18 18 17 16 15 14 14 14 13 13 12 12 11 11 11 12 15 15 15 14 13 11 13 14 14 13 11 9 9 9 11 11 10 10 10 9 10 10 10 9 8 8 10 11 11 11 10 8 6 3 2 4 6 4 3 4 5 4 5 8 6 4 5 10 8 7 7 6 6 5 6 6 6 6
12 13 12 13 14 17 15 15 15 15 16 17 16 15 13 14 14 14 13 14 13 12 12 13 12 14 13 15 15 15 14 14 11 11 12 13 12 10 10 10 8 11 11 11 11 9 10 11 11 11 9 8 8 9 10 10 10 8 7 5 3 3 2 3 4 2 5 5 4 3 7 6 3 8 8 7 5 5 5 5 4 4 6 5 6
9 10 14 14 12 17 17 14 14 14 14 14 15 14 13 12 14 14 14 14 13 13 12 13 13 13 14 15 15 16 15 13 12 13 12 11 11 9 8 8 9 10 10 11 11 9 11 12 11 11 10 8 7 8 9 8 8 7 6 5 3 4 6 5 1 5 4 4 4 5 7 4 4 9 6 5 4 4 4 4 4 4 4 4 5
10 14 12 12 12 13 17 14 13 14 13 13 13 14 14 12 13 14 15 15 14 15 15 13 15 13 15 16 14 14 12 9 9 11 9 9 11 10 9 9 10 11 12 11 11 10 10 9 11 11 10 9 8 8 8 8 6 6 5 4 3 5 6 4 5 3 3 2 1 1 4 3 7 7 7 2 1 1 3 3 3 4 3 3 3
14 13 11 11 12 11 11 14 13 13 13 12 12 13 14 13 12 14 15 16 16 15 15 13 13 14 12 12 13 12 12 10 9 10 10 11 9 8 8 9 10 9 10 11 11 11 10 11 10 10 10 10 9 8 9 8 7 7 6 5 4 5 6 5 5 2 3 2 1 0 4 3 8 6 6 2 1 2 2 3 2 6 4 3 3
14 12 13 12 11 10 10 10 10 13 12 12 12 12 13 13 12 14 14 15 16 17 15 14 12 10 11 12 12 11 10 11 11 10 9 8 7 5 5 7 5 10 9 10 11 11 10 10 10 10 10 10 10 9 9 9 8 7 6 5 5 4 5 5 5 2 5 3 2 2 4 3 6 5 4 2 2 1 2 2 1 3 3 4 3
12 12 13 12 11 10 9 9 9 9 8 9 11 11 12 12 11 13 12 13 14 15 12 12 11 10 11 10 11 11 12 13 12 11 10 8 6 4 6 6 6 8 9 10 10 12 12 10 9 9 9 9 9 9 8 8 7 6 5 4 4 6 6 6 4 2 4 2 2 1 4 4 5 5 2 1 1 3 2 4 4 4 4 4 4
12 12 12 12 12 11 10 9 9 8 8 7 6 8 11 11 11 12 11 11 12 12 12 11 11 10 10 9 9 10 11 12 12 12 11 9 8 7 8 6 7 10 9 9 9 11 11 11 9 9 8 8 8 8 8 8 7 6 5 3 2 4 7 4 4 3 2 1 1 1 4 5 3 3 1 2 3 3 3 4 5 6 5 5 5
7 10 11 11 11 11 9 9 9 9 8 7 7 7 8 11 11 11 11 10 11 11 11 11 11 10 10 10 10 8 9 8 11 10 11 9 9 7 8 6 7 8 8 10 10 9 11 11 10 9 9 7 7 7 9 7 7 6 4 3 1 2 3 4 4 2 2 3 2 3 4 5 4 2 3 5 5 6 6 7 7 7 7 7 7
4 5 8 9 11 11 11 9 10 11 9 8 7 7 7 10 9 10 11 10 11 11 11 11 10 9 9 10 10 7 5 5 6 5 8 6 8 9 8 7 7 6 8 8 6 7 5 7 8 11 11 7 4 8 6 7 7 6 5 5 3 2 4 5 5 0 0 3 2 3 6 5 4 4 5 7 8 9 9 9 9 9 8 8 8
4 5 5 10 11 10 11 10 10 11 10 7 7 7 6 8 7 6 6 7 7 8 7 6 7 5 9 9 6 6 6 5 5 6 5 5 6 10 8 8 6 6 6 6 7 4 8 5 8 7 8 8 7 5 5 7 8 8 7 5 3 3 5 6 5 1 2 5 2 3 6 5 5 6 8 9 10 10 11 10 10 10 10 9 10
5 4 4 10 10 10 10 10 10 10 11 8 7 7 9 6 6 6 5 6 6 5 5 6 5 6 6 6 6 6 6 6 5 6 5 8 7 10 9 8 6 6 6 6 7 6 8 8 7 5 4 8 5 3 4 5 4 8 5 4 4 5 5 6 3 3 3 3 4 5 6 7 7 8 9 10 11 11 11 11 11 11 11 11 11
6 5 4 7 10 8 11 11 11 10 11 8 7 8 9 7 6 6 5 5 5 4 4 4 5 6 6 6 6 4 5 6 8 14 9 7 7 9 11 9 9 7 7 5 5 7 7 7 8 6 4 4 3 4 5 5 5 4 4 4 5 5 6 4 1 1 2 4 5 8 8 7 8 9 11 12 12 12 12 12 12 12 12 12 12
6 6 5 6 10 10 10 10 10 10 11 8 8 8 9 7 7 7 6 6 6 6 5 4 5 5 6 6 5 4 6 5 7 8 6 7 6 5 5 5 5 4 6 4 4 3 4 4 3 4 3 4 4 5 6 5 6 6 6 6 6 6 6 5 3 3 5 6 6 9 9 9 10 11 12 12 12 12 12 12 13 13 13 13 13
6 6 6 5 8 9 11 9 9 8 11 8 8 8 10 8 8 8 7 6 6 6 5 5 6 5 6 6 6 6 6 6 6 7 7 7 6 5 6 6 5 4 4 5 5 5 5 4 4 5 5 5 6 6 6 6 7 7 6 7 8 5 4 5 5 6 6 7 6 9 11 12 12 12 12 13 13 13 13 13 13 14 14 14 14
7 7 6 5 6 9 10 9 10 8 10 8 8 8 8 8 8 8 8 8 7 7 6 6 6 5 5 6 5 6 4 6 6 6 7 6 7 6 6 6 6 6 6 5 5 6 6 6 5 6 7 7 6 7 8 6 5 5 5 5 5 5 4 3 4 5 6 5 5 9 11 12 13 14 13 14 14 15 15 15 15 15 15 15 15
7 6 7 5 6 8 8 8 9 10 8 9 8 8 8 8 9 9 9 9 9 8 8 7 6 7 6 6 6 5 4 6 6 7 6 6 6 7 8 7 7 6 7 7 7 6 7 7 7 7 8 7 8 7 6 4 3 2 3 2 2 3 5 4 3 4 4 5 5 7 11 12 13 14 14 14 15 16 16 17 17 16 16 16 16
6 6 6 5 5 6 8 10 7 9 9 8 8 8 8 7 7 8 8 8 8 8 8 8 7 7 7 7 6 6 5 6 5 6 6 7 6 5 5 7 7 7 7 7 7 7 7 8 8 7 7 7 7 4 3 3 3 3 4 4 4 4 4 3 4 4 5 5 5 6 11 13 13 14 15 15 15 16 17 17 17 17 17 17 17
6 5 5 5 5 6 7 9 9 9 8 9 9 8 8 7 6 7 7 7 7 8 8 7 6 7 8 6 6 6 5 6 6 4 6 5 5 5 4 4 6 6 6 6 7 7 7 5 5 4 4 3 3 3 3 4 4 4 5 6 6 7 6 5 6 6 6 6 6 7 11 13 15 14 15 16 15 16 16 17 17 17 17 17 17
8 7 5 3 3 7 7 7 7 6 8 8 4 8 8 7 5 6 6 6 6 7 6 6 5 7 7 8 5 6 3 3 6 5 5 5 6 6 6 5 5 6 6 7 5 5 6 6 5 5 5 5 5 5 6 6 5 5 5 5 6 6 6 6 7 7 7 7 7 7 9 14 15 15 14 16 16 17 17 16 17 17 17 17 17
5 6 6 3 3 4 5 6 7 5 5 9 9 5 7 6 7 6 5 6 6 6 6 6 5 5 6 8 6 5 4 3 4 5 5 6 6 6 5 5 6 6 6 5 5 5 5 4 5 5 5 5 6 6 6 6 5 6 5 5 5 5 6 6 5 5 6 6 6 6 6 7 13 15 15 15 16 17 17 17 17 17 18 18 18
3 5 5 5 4 4 4 5 6 4 4 5 7 7 7 6 7 7 6 5 6 5 6 6 5 4 4 7 7 6 6 4 3 4 6 5 5 5 5 5 4 4 5 5 5 4 4 4 4 4 5 5 6 6 6 6 6 6 6 6 6 6 6 6 6 6 7 6 7 7 7 6 6 13 16 15 16 16 17 18 18 18 18 18 18
5 4 5 5 4 3 3 2 3 7 6 3 3 6 7 6 6 6 5 6 5 4 5 6 5 5 5 6 6 6 6 6 3 4 5 5 5 5 5 6 5 4 4 5 6 5 5 4 5 5 5 5 5 5 5 5 6 6 6 4 4 5 5 6 7 7 6 6 6 7 7 7 7 6 8 14 16 16 16 18 18 19 19 19 19
6 6 6 6 4 3 3 4 3 4 7 8 6 4 5 8 7 6 6 6 5 5 4 4 4 4 4 5 6 6 6 5 5 3 5 5 5 5 5 5 5 4 5 5 7 6 6 6 6 6 6 6 6 6 5 5 4 6 5 5 5 4 4 5 4 5 6 7 7 6 7 7 7 7 6 7 11 17 17 16 18 18 19 19 19
4 6 6 6 5 3 3 4 4 4 5 7 7 6 3 4 3 6 6 6 6 5 5 5 4 5 4 3 6 7 6 5 5 5 4 6 6 6 6 6 6 6 6 4 3 3 5 5 5 6 6 5 6 6 6 6 5 5 4 5 5 6 6 6 6 7 7 7 7 7 7 7 7 7 7 7 7 9 16 15 16 18 18 18 18
4 6 7 4 4 5 4 3 3 4 5 5 4 6 3 4 6 5 6 6 6 6 5 5 5 5 6 5 5 6 6 6 5 5 5 5 6 6 6 7 6 6 5 4 3 3 3 3 4 4 5 5 6 5 5 6 6 5 5 4 4 4 5 6 8 8 8 7 7 7 8 8 8 8 7 7 7 6 11 16 16 17 17 17 16
4 5 7 8 4 4 5 5 3 3 3 5 7 5 7 7 4 5 5 7 7 6 6 6 6 5 5 6 4 6 6 6 6 5 6 5 6 6 4 5 6 7 6 6 5 4 4 5 5 4 5 5 5 5 6 6 6 6 7 6 6 6 7 8 8 8 7 6 7 8 8 7 8 8 8 7 7 7 5 9 15 17 17 16 15
4 5 6 7 6 4 5 5 5 4 4 2 3 4 5 2 5 5 3 5 6 5 5 4 4 5 4 4 5 6 7 7 6 5 5 6 4 5 6 5 5 6 6 6 6 6 7 6 5 4 4 5 5 4 4 4 5 5 6 6 6 8 7 7 6 5 6 6 8 9 7 8 7 7 7 7 7 6 6 5 5 6 8 14 14
5 4 3 7 7 5 4 3 4 4 5 4 3 3 6 6 6 5 5 2 3 5 5 5 5 3 4 5 6 7 7 7 7 6 5 6 5 4 5 4 5 5 6 6 6 6 6 6 5 5 5 4 4 3 3 4 4 3 4 4 5 5 6 6 6 7 7 8 8 8 9 8 7 7 6 6 6 6 6 5 5 6 6 9 14
6 6 4 3 3 7 7 7 4 4 4 5 5 5 5 5 5 5 6 7 8 7 6 5 5 6 6 5 7 7 7 7 8 7 7 7 6 5 5 5 6 6 6 7 6 5 5 6 6 6 7 6 5 4 4 2 3 5 4 5 6 6 9 9 11 11 10 8 8 9 8 7 8 7 7 6 5 5 5 6 6 6 7 6 8
1 7 6 8 6 6 8 7 6 6 5 5 5 6 6 6 6 6 5 6 6 7 7 7 7 7 8 7 6 7 8 8 8 9 8 7 7 6 6 7 7 7 7 7 7 7 7 7 7 7 7 8 6 5 7 5 5 4 2 5 7 8 12 13 14 13 11 9 9 9 9 9 8 6 6 7 6 6 5 6 6 6 6 6 6
3 1 4 6 6 5 6 6 6 6 6 4 4 5 4 5 7 5 5 4 5 6 6 6 8 8 9 10 8 8 8 8 8 8 9 8 8 8 8 6 7 7 7 8 8 9 8 9 9 8 6 7 7 5 8 9 6 4 3 4 6 4 3 6 9 11 11 10 9 10 9 9 8 7 7 6 7 6 6 6 6 6 6 6 6
15 15 13 5 4 5 5 1 3 5 6 6 6 5 4 6 6 6 8 7 5 4 4 4 6 8 9 9 8 7 8 8 8 8 8 8 9 9 8 8 8 7 8 8 9 10 9 9 9 9 8 7 8 8 6 9 6 6 4 7 4 2 7 5 7 8 10 10 10 10 8 7 7 6 6 7 6 6 6 6 7 6 6 5 4
17 19 19 18 13 13 9 5 5 4 3 4 6 3 3 2 3 2 1 1 3 4 6 8 9 8 8 8 8 8 8 9 9 9 9 9 9 8 8 8 8 7 7 9 9 10 10 10 11 10 11 9 8 7 7 9 10 9 6 1 2 3 5 3 1 5 6 8 9 9 7 7 6 6 7 6 5 6 7 7 7 5 5 5 4
18 16 15 15 17 17 20 20 11 9 8 6 2 4 7 4 3 3 3 3 5 5 7 7 6 6 8 7 8 9 9 10 10 11 11 10 10 10 9 8 8 8 8 8 9 8 10 11 11 10 11 11 8 6 8 8 10 11 11 9 2 2 2 3 3 4 1 3 4 5 6 7 6 6 6 6 6 7 7 7 7 7 5 5 5
18 15 16 18 21 20 19 17 15 14 16 18 11 4 3 2 1 3 6 7 8 7 6 6 6 6 5 6 6 7 9 11 11 12 12 12 12 12 11 10 9 8 7 7 9 10 10 10 9 10 11 9 9 10 10 7 6 9 10 12 13 10 4 3 4 3 2 3 3 5 5 5 6 6 7 7 7 7 6 5 6 7 6 6 6
17 17 18 18 20 19 18 17 14 16 17 16 16 17 9 1 0 3 4 6 5 5 6 6 3 3 4 4 5 6 7 9 9 10 11 11 12 12 13 12 12 11 9 9 10 9 8 8 10 11 10 9 11 12 11 7 9 7 8 10 10 11 11 7 7 5 4 3 4 3 4 5 6 6 7 7 8 7 7 6 6 6 7 6 6
18 18 17 16 16 17 16 18 17 17 16 18 16 15 14 14 8 3 5 4 6 6 6 6 7 6 7 8 7 6 5 4 6 8 9 11 11 12 12 12 11 11 10 10 10 10 11 10 10 11 11 10 10 11 10 10 10 8 7 9 8 8 8 8 7 7 9 6 7 6 5 3 4 7 6 6 7 7 7 7 7 7 7 7 7
15 15 15 16 17 17 19 21 19 16 16 18 16 17 18 17 16 16 15 10 6 4 3 5 5 3 7 8 8 8 8 8 7 7 6 6 6 10 11 13 13 12 10 11 11 11 11 12 11 10 10 11 9 10 11 10 9 9 8 7 8 8 8 8 8 9 8 8 9 4 5 7 8 7 6 8 8 8 7 7 7 7 7 7 7
15 17 17 17 16 16 16 19 18 15 18 19 18 19 17 16 15 15 14 13 15 12 9 5 4 5 5 8 8 7 7 7 7 7 10 9 9 8 10 12 11 10 10 12 12 12 12 12 12 13 11 11 10 11 11 10 9 10 10 8 10 10 10 9 10 9 9 7 8 11 7 6 9 6 7 9 9 8 8 7 7 7 6 6 6
Wind_Direction
151 143 147 155 153 149 147 146 146 147 147 149 150 149 152 156 154 151 153 153 155 153 149 148 149 142 136 137 139 136 145 124 132 126 125 122 122 125 126 124 129 134 127 126 124 123 122 118 116 120 120 112 112 111 102 96 92 93 94 93 91 91 90 91 90 88 86 85 85 85 84 86 86 84 72 68 55 48 65 85 74 53 42 54 55
145 141 147 153 150 149 149 147 147 147 148 149 149 151 153 152 153 156 156 154 154 152 150 149 147 139 133 139 140 145 146 129 129 126 127 123 125 127 129 131 130 132 128 125 124 124 117 115 107 103 104 105 105 105 101 98 94 95 95 95 95 95 95 96 96 96 94 91 87 84 82 81 83 82 83 66 52 60 64 68 69 61 54 62 60
131 139 147 151 149 149 150 148 149 147 148 149 150 151 147 146 151 157 154 153 154 152 152 150 144 141 137 144 144 150 148 125 130 125 128 130 125 126 127 127 129 128 121 117 116 113 119 114 109 102 100 100 101 104 99 96 99 98 96 97 98 100 102 104 105 108 107 102 94 86 81 82 80 83 80 62 56 47 75 78 81 71 73 79 77
134 139 145 149 149 150 150 150 150 148 147 148 148 148 144 145 152 154 155 156 155 152 152 148 147 145 145 146 150 153 148 123 133 126 125 125 126 125 126 126 124 125 124 124 124 120 108 112 102 100 104 103 101 103 104 99 98 98 96 97 101 104 105 107 109 113 116 119 112 102 84 67 72 79 77 63 62 54 54 92 92 87 98 89 83
134 142 144 147 150 152 151 151 150 149 148 148 146 145 145 145 148 154 156 155 154 154 155 153 153 150 152 151 152 150 134 133 128 125 124 124 126 126 122 123 126 125 124 122 120 114 112 105 96 95 94 96 101 100 101 103 103 101 98 100 103 107 110 113 122 132 147 161 134 86 95 87 77 81 80 74 66 56 51 67 66 51 51 93 74
134 142 145 151 151 153 153 153 151 150 149 148 147 146 147 146 147 152 156 157 157 161 159 159 158 155 150 150 147 136 135 136 132 125 119 119 120 120 122 125 124 122 118 120 116 117 116 105 99 97 97 104 104 107 108 111 110 104 102 100 104 110 120 134 133 137 157 240 246 125 113 108 90 84 86 84 72 59 66 69 69 53 51 67 69
137 140 151 155 152 155 153 154 153 151 150 149 148 148 149 148 150 153 155 157 160 162 162 164 159 154 152 147 142 139 140 133 131 124 120 119 118 117 117 119 117 118 121 120 120 111 107 102 101 102 104 109 113 115 117 116 113 106 104 103 103 108 116 106 103 249 244 216 213 141 108 104 105 106 93 93 87 83 79 76 81 65 52 66 79
130 143 153 154 153 156 154 155 155 153 151 150 151 152 151 150 152 157 156 158 160 162 163 162 155 157 152 150 145 142 141 134 140 132 124 117 113 112 117 122 121 120 118 112 107 105 100 98 96 105 110 113 118 120 122 123 121 113 106 108 108 117 130 166 337 335 318 313 61 80 113 122 126 117 96 88 88 72 67 84 84 65 60 60 61
135 147 152 150 149 155 155 156 156 155 152 152 153 154 154 152 155 158 159 162 161 163 163 161 159 157 158 151 143 147 142 137 136 121 116 111 101 98 103 109 116 116 114 114 113 114 110 107 106 103 110 115 123 127 126 126 125 119 115 115 124 143 171 259 241 272 299 197 68 61 81 115 117 110 92 87 86 70 58 65 62 61 60 63 65
142 149 147 153 147 155 156 157 157 156 155 155 155 155 157 156 158 159 159 162 162 159 165 158 159 160 160 155 150 148 142 140 139 122 121 115 110 104 98 112 109 111 118 120 120 120 121 116 114 112 113 123 127 130 129 128 128 126 124 125 146 170 223 332 344 318 264 87 86 84 94 107 98 97 108 102 85 78 77 80 82 75 70 71 75
143 151 154 146 147 155 156 158 159 158 158 157 157 157 158 156 158 160 163 166 165 165 162 166 161 164 164 157 150 145 148 149 150 127 126 122 118 113 112 112 122 116 115 120 124 125 127 122 116 116 117 126 131 131 129 126 126 128 128 134 147 194 9 349 323 295 30 82 89 103 83 81 83 84 106 103 93 81 76 80 88 93 89 84 82
149 149 152 136 149 153 157 158 160 159 160 159 159 158 158 155 157 159 166 169 163 170 161 166 163 157 169 153 148 145 146 151 164 140 134 128 125 125 120 119 127 129 129 130 129 131 132 128 122 115 115 125 133 135 132 127 123 122 122 129 116 56 9 357 326 320 45 63 59 59 83 95 92 107 102 99 103 101 107 110 119 102 92 92 82
148 153 136 141 149 153 157 159 158 158 161 161 160 158 153 152 155 156 162 162 160 166 165 157 171 157 164 150 150 144 151 164 145 129 130 131 128 130 132 132 139 137 138 134 129 135 134 131 127 119 116 122 135 140 137 133 124 109 101 97 66 46 1 301 309 25 45 41 16 58 84 86 92 114 108 105 111 113 110 119 118 100 104 104 100
142 113 134 142 151 153 155 157 156 157 160 162 159 156 151 148 153 152 149 153 158 152 156 162 158 156 156 152 150 154 159 159 142 134 129 130 132 130 138 142 142 143 142 136 134 139 139 139 131 120 114 118 121 134 136 131 125 90 81 67 39 2 3 309 9 59 53 50 36 28 82 78 85 83 85 120 121 128 114 125 141 121 98 97 102
115 120 131 140 146 154 154 154 154 155 158 162 159 156 151 148 151 151 149 150 158 155 157 156 154 173 163 156 154 152 150 140 134 129 138 137 132 133 143 155 153 150 145 145 137 143 143 144 136 128 122 117 118 113 116 107 111 88 82 67 33 16 13 344 328 105 77 61 79 351 102 91 94 89 81 27 108 138 158 133 148 142 134 128 108
112 125 125 135 147 149 152 154 150 152 155 156 155 155 154 155 149 153 151 153 155 152 156 162 164 172 162 153 144 141 135 129 114 117 113 117 131 143 153 166 174 167 159 138 142 143 149 149 145 139 132 124 120 120 107 107 108 96 80 63 28 24 13 349 320 153 126 154 127 149 94 110 112 90 95 54 199 204 193 192 186 145 172 191 158
121 125 126 136 145 148 152 152 151 147 150 151 152 154 159 158 148 149 153 155 154 155 160 162 167 169 163 145 139 140 135 126 124 121 117 123 130 153 167 186 188 165 174 157 144 146 150 158 154 147 145 137 127 118 113 108 101 90 79 53 28 22 4 349 331 33 62 56 44 51 68 98 108 96 77 37 340 204 213 237 236 220 222 232 217
125 128 129 142 148 154 150 151 147 148 147 147 151 155 161 161 153 145 150 151 151 154 146 142 146 144 150 144 138 139 138 139 136 136 139 125 119 144 169 179 179 152 159 171 164 154 159 159 160 154 157 156 146 133 118 115 107 100 84 66 38 354 354 349 308 11 95 41 16 322 108 126 118 111 83 32 308 297 221 248 227 231 244 244 239
128 126 132 146 152 157 156 150 152 153 149 150 150 157 159 161 155 149 149 146 145 143 140 142 139 133 130 131 133 138 142 143 144 146 146 134 129 136 154 172 174 152 162 168 176 167 170 162 159 164 163 162 166 157 139 125 122 113 106 85 29 347 333 334 313 353 100 174 263 232 124 126 121 138 163 252 271 277 273 260 266 259 263 259 267
116 128 143 150 154 158 157 154 159 158 157 153 155 156 160 158 154 153 155 153 152 150 146 147 143 139 133 131 129 129 131 136 145 150 150 140 135 136 139 144 135 154 170 177 184 181 183 182 173 170 161 175 174 157 147 139 133 138 138 136 168 322 310 289 281 287 354 294 233 111 158 156 159 187 238 261 260 264 259 262 273 275 274 277 267
119 130 141 151 156 158 156 157 167 162 163 160 157 159 162 157 153 156 159 161 157 156 153 150 149 143 132 136 131 131 132 133 145 151 153 147 136 134 133 136 137 160 176 181 172 191 141 175 175 176 164 148 137 146 157 153 155 160 160 164 184 261 260 259 246 180 289 268 257 140 167 173 195 212 235 248 255 255 256 259 260 259 261 261 267
146 146 152 153 159 161 160 161 168 169 164 168 156 159 156 162 156 155 157 159 156 153 149 151 147 144 139 145 148 147 144 150 154 148 161 147 142 132 129 132 150 164 190 175 170 147 138 157 173 189 190 130 124 139 170 177 176 172 175 171 181 231 254 256 235 178 264 284 271 150 172 185 206 223 240 247 249 250 251 252 253 254 255 257 262
160 165 199 162 163 158 161 161 168 170 166 166 158 154 158 164 163 160 158 158 153 153 160 154 153 149 151 162 169 169 158 164 160 162 167 153 154 139 132 131 154 175 168 147 145 142 155 152 167 181 159 138 148 190 186 191 184 180 169 183 217 225 242 253 191 175 211 247 276 177 181 197 220 234 241 246 247 248 249 249 248 250 252 252 253
166 181 197 168 165 162 162 166 174 171 167 166 161 152 161 166 163 165 159 163 154 166 165 163 168 156 162 170 188 182 181 167 170 167 168 159 155 147 141 137 137 151 154 151 168 159 164 178 168 172 171 158 173 209 226 183 183 179 185 203 222 236 240 230 166 211 244 244 239 193 198 204 233 245 246 244 245 248 249 249 249 249 249 250 250
176 175 198 178 168 165 164 168 173 171 168 165 164 157 164 166 165 166 163 169 157 168 169 177 179 172 169 175 190 199 184 186 166 164 148 159 152 149 143 146 141 148 158 151 160 165 160 174 166 174 179 184 197 222 231 198 181 181 195 205 217 225 229 202 180 211 233 240 228 207 204 218 234 241 243 243 245 247 248 249 249 248 247 247 247
165 180 187 196 172 170 166 166 172 174 168 165 168 160 160 171 167 167 165 173 164 164 175 181 188 183 171 187 189 209 186 192 156 162 161 158 163 166 165 160 160 158 177 177 175 166 182 185 176 184 206 205 207 219 226 215 176 186 196 206 209 220 215 191 196 212 227 233 232 219 210 216 223 236 242 245 248 249 249 249 249 248 246 245 245
165 176 181 193 179 175 169 162 168 174 170 166 164 163 171 176 170 170 167 172 166 167 184 182 186 178 169 186 196 213 188 179 152 159 175 168 163 175 179 170 175 175 182 188 196 177 188 194 194 194 201 214 216 218 227 220 186 175 196 201 197 207 226 213 212 217 227 230 232 232 214 212 219 230 239 246 250 251 251 252 250 248 247 246 244
156 173 175 193 183 179 170 171 166 169 171 173 170 168 178 179 177 168 173 170 165 170 184 189 179 175 174 183 199 209 194 177 156 171 177 177 187 183 182 184 181 189 183 193 200 189 186 200 203 194 201 209 221 219 209 193 182 201 242 255 234 212 211 219 223 231 233 238 238 233 213 212 218 225 233 242 247 248 250 250 250 248 247 245 245
149 166 165 187 184 186 179 178 165 170 168 163 175 172 181 189 174 169 175 165 167 172 179 194 173 171 176 181 191 209 200 166 175 174 169 171 188 205 182 176 181 188 178 194 196 202 193 198 201 200 195 201 208 223 215 220 195 191 202 230 245 252 244 241 244 244 242 238 240 234 213 215 217 223 232 240 244 246 248 250 250 250 248 247 246
150 158 166 185 181 194 194 180 178 166 172 166 182 180 176 192 179 172 177 163 171 174 174 187 172 162 173 179 185 209 191 165 174 176 160 169 180 194 192 181 177 184 188 206 190 187 210 200 188 187 200 207 218 231 212 221 223 211 198 204 212 219 217 219 232 238 241 236 235 240 227 218 222 223 228 235 240 244 246 248 249 249 248 247 246
160 168 166 174 181 193 197 185 177 172 158 175 205 177 173 181 180 174 173 170 171 168 176 174 176 167 165 176 180 196 204 178 170 175 167 175 187 185 188 190 183 187 187 200 194 187 199 198 190 192 190 197 209 217 209 212 218 223 219 210 213 207 209 214 220 225 227 230 229 228 231 222 219 224 224 229 235 239 243 246 248 248 249 248 248
150 160 155 165 188 205 197 182 170 182 177 167 177 173 188 183 167 173 175 174 170 165 166 167 186 175 161 167 170 176 198 217 178 175 173 178 184 185 185 189 195 188 187 186 197 194 192 199 195 191 192 191 202 212 216 208 218 219 213 216 221 221 219 219 233 239 233 227 227 233 229 218 224 225 227 228 231 236 241 243 245 245 246 247 248
143 139 148 161 198 201 215 195 176 175 193 179 168 181 177 189 166 173 173 176 175 163 164 168 187 176 158 156 170 166 184 216 208 181 179 182 179 179 185 197 203 192 182 186 193 191 189 205 222 201 196 196 202 212 210 205 213 225 216 214 209 217 218 217 228 240 248 241 235 234 238 226 215 228 229 230 231 235 237 242 245 245 245 246 246
149 134 143 171 190 179 192 232 190 180 196 231 210 174 175 171 170 165 167 166 172 167 171 172 180 174 161 155 166 170 172 197 216 199 176 178 182 180 181 191 200 201 191 184 190 190 191 197 216 213 215 209 221 225 214 221 220 219 216 212 208 223 220 222 219 228 237 238 232 229 230 235 226 217 227 233 233 233 234 238 241 244 246 246 247
141 153 164 167 180 182 167 188 191 197 186 190 217 233 196 172 166 171 160 165 168 169 173 182 174 174 155 168 162 170 172 181 210 203 188 180 184 192 187 190 191 205 205 193 183 192 198 206 202 207 210 210 211 216 219 233 232 229 228 216 218 236 256 251 245 242 239 244 241 235 228 227 228 229 217 219 233 234 234 234 238 242 244 246 247
169 153 146 158 175 185 185 195 185 190 188 193 217 207 203 283 267 171 159 160 166 174 175 189 181 174 189 181 177 167 173 185 195 211 197 188 190 192 193 185 191 192 198 198 173 193 203 216 218 197 205 219 206 219 214 223 223 229 229 211 215 218 231 243 252 255 252 245 244 246 241 234 229 228 230 221 215 227 231 231 233 238 242 244 245
163 143 147 156 171 181 168 205 207 195 187 198 193 237 213 194 208 202 160 163 168 176 183 189 187 188 184 196 175 172 171 180 201 206 212 196 195 200 194 187 184 179 174 180 193 214 231 243 248 226 196 212 209 214 216 215 226 230 233 232 227 230 233 229 229 230 231 238 242 238 237 235 234 233 231 232 228 213 223 229 231 235 239 240 241
165 159 153 157 182 172 166 185 225 222 225 190 191 214 190 211 244 204 167 168 171 175 183 185 187 191 189 188 173 173 177 181 198 206 210 211 195 194 200 189 180 178 173 177 193 200 224 234 251 254 222 213 223 213 219 217 214 214 217 219 229 234 242 241 230 225 223 238 248 247 237 231 228 231 231 231 230 230 223 218 227 232 235 236 237
166 159 155 144 153 170 155 174 199 201 208 162 181 231 298 233 189 222 216 177 177 178 190 175 180 177 198 191 188 175 183 186 192 202 204 218 214 197 193 198 175 172 169 178 191 195 200 215 226 255 251 220 213 230 231 228 229 216 212 216 220 227 232 235 237 236 233 238 246 251 248 237 230 229 230 227 226 223 229 222 211 224 236 237 237
148 141 125 146 160 165 151 157 196 195 172 163 155 196 205 236 233 176 197 241 244 192 204 193 180 199 196 209 200 185 172 183 188 197 206 208 215 208 195 187 179 170 180 191 201 193 189 195 227 250 265 261 232 233 274 299 290 257 240 251 245 242 244 251 252 243 239 237 240 241 244 240 232 232 230 225 217 216 214 219 202 212 219 229 230
144 147 137 114 158 157 159 177 195 206 187 173 179 195 197 204 227 209 188 184 195 207 209 215 200 201 207 211 199 185 177 176 187 193 207 211 209 204 195 200 188 184 191 202 196 196 188 192 211 226 249 254 243 218 248 269 329 308 311 286 283 269 259 250 249 243 237 235 234 244 247 239 232 228 232 230 222 211 213 215 214 206 211 216 225
134 146 166 162 203 189 175 170 170 206 223 208 187 188 185 189 194 208 200 188 188 199 201 204 217 218 221 225 209 189 184 182 187 193 200 206 210 209 207 203 195 197 200 196 193 192 188 193 198 215 213 236 246 197 211 192 245 227 274 297 266 250 235 229 233 237 233 232 232 235 237 236 231 225 223 219 217 213 213 212 213 219 220 211 202
349 86 147 168 189 184 173 161 173 184 214 227 195 203 203 198 183 202 224 218 191 190 201 204 205 208 209 217 215 201 187 192 184 190 198 204 207 210 218 213 207 199 199 202 195 197 196 196 196 204 207 213 232 226 199 187 211 174 212 273 274 292 295 231 235 234 226 225 223 228 228 227 226 218 213 205 209 210 211 207 213 214 218 218 197
1 345 336 336 339 12 26 72 204 197 204 215 218 215 208 201 207 194 184 200 221 224 241 237 243 226 218 216 216 196 192 192 190 185 196 203 206 210 213 216 214 202 199 201 201 203 201 201 200 203 197 210 209 224 200 190 190 150 215 211 243 273 302 263 221 230 215 218 215 222 216 219 217 217 205 207 203 206 209 205 213 212 214 210 209
20 16 11 11 10 3 330 307 311 296 278 250 229 274 267 198 197 237 2 248 206 196 206 216 215 210 207 200 206 193 188 191 192 191 193 205 209 213 214 218 217 209 200 201 204 206 203 205 203 204 204 209 211 209 212 195 200 199 206 215 263 265 228 280 306 275 193 209 215 207 209 209 211 210 208 213 210 205 204 207 208 208 210 209 211
23 17 16 15 23 23 15 11 356 351 331 286 278 221 221 200 188 203 221 234 230 210 221 222 213 209 209 211 209 201 194 193 194 197 196 197 207 213 218 219 218 215 207 207 209 206 209 210 207 208 212 214 215 199 217 214 204 204 214 227 204 199 297 315 360 285 314 240 217 215 206 208 204 208 211 211 218 220 203 199 200 205 206 209 211
21 19 19 19 26 23 19 15 13 16 12 355 322 243 234 226 243 243 231 216 217 226 222 221 222 227 222 215 216 209 203 199 197 196 199 197 201 206 211 214 214 214 209 211 218 215 211 211 205 207 214 211 213 228 221 208 210 219 215 219 234 253 216 274 277 320 309 303 236 215 234 216 207 208 209 210 215 217 218 195 197 201 206 209 210
24 25 24 23 23 22 20 15 12 18 13 4 7 7 336 318 117 290 289 290 270 253 257 251 272 294 275 254 241 233 218 210 207 202 202 201 200 204 206 209 210 211 204 208 215 218 215 212 207 210 213 210 211 222 231 208 197 226 208 223 223 232 249 244 247 253 269 292 289 279 253 217 217 222 209 209 215 211 209 212 207 203 207 210 207
31 29 29 25 25 25 23 21 21 23 11 10 11 10 16 5 358 287 246 272 285 277 292 287 253 259 267 274 283 295 294 261 229 217 209 203 197 203 204 209 213 215 210 213 214 214 213 216 211 210 212 214 213 220 222 225 218 221 185 220 221 226 229 239 238 233 243 247 262 220 234 248 232 236 229 217 220 216 210 210 206 204 208 214 207
28 30 30 28 23 23 23 24 18 18 14 12 8 16 20 19 15 4 359 337 315 307 270 282 301 249 268 262 246 246 248 258 265 262 248 235 208 202 202 206 211 214 210 214 218 218 218 219 223 222 216 218 219 220 220 223 225 226 200 197 207 218 219 232 227 222 237 223 243 231 207 193 217 237 217 224 221 223 218 210 205 209 210 209 207
25 27 26 25 24 22 21 25 18 16 19 13 7 17 21 22 18 7 359 359 356 350 335 307 296 296 248 249 251 240 236 240 230 229 235 230 229 221 210 209 211 213 212 218 218 217 217 218 216 214 216 222 225 223 224 226 224 223 222 202 209 203 212 215 220 212 212 216 226 247 244 216 216 240 231 214 216 219 213 205 208 212 211 209 211